Weather History for KUNI - November, 2012

Change the Weather History Date:

Tuesday, November 27, 2012

  Actual Average (KPKB) Record (KPKB)
Temperature  
Mean Temperature 38 °F 41 °F  
Max Temperature 43 °F 50 °F 80 °F (1990)
Min Temperature 34 °F 32 °F 8 °F (1930)
Degree Days  
Heating Degree Days 26 24  
Month to date heating degree days 518  
Cooling Degree Days 0 0  
Month to date cooling degree days 0  
Moisture  
Dew Point 30 °F    
Average Humidity 78    
Maximum Humidity 91    
Minimum Humidity 48    
Precipitation  
Precipitation 0.00 in 0.11 in 0.73 in (2001)
Month to date precipitation 3.02  
Sea Level Pressure  
Sea Level Pressure 30.27 in    
Wind  
Wind Speed 4 mph (NNW)    
Max Wind Speed 7 mph    
Max Gust Speed -    
Visibility 9 miles    
Events Rain    
T = Trace of Precipitation, MM = Missing Value Source: NWS Daily Summary

Daily Weather History Graph

Daily Weather History Graph

Search for Another Location

Airport or City:

Trip Planner

Search our weather history database for the weather conditions in past years. The results will help you decide how hot, cold, wet, or windy it might be!

Date:

Astronomy

Nov. 27, 2012 Rise Set
Actual Time 7:25 AM EST 5:07 PM EST
Civil Twilight 6:56 AM EST 5:36 PM EST
Nautical Twilight 6:23 AM EST 6:09 PM EST
Astronomical Twilight 5:51 AM EST 6:42 PM EST
Moon 4:37 PM EST (11/27) 6:29 AM EST (11/27)
Length of Visible Light 10h 40m
Length of Day
9h 41m
Waxing Gibbous, 99% of the Moon is Illuminated
Nov 27
Waxing Gibbous
Nov 28
Full
Dec 6
Last Quarter
Dec 13
New
Dec 20
First Quarter

Hourly Weather History & Observations

Time (EST) Temp. Windchill Dew Point Humidity Pressure Visibility Wind Dir Wind Speed Gust Speed Precip Events Conditions
12:15 AM 43.0 °F 41.3 °F 24.6 °F 48% 30.18 in 10.0 mi NNE 3.5 mph - N/A   Overcast
12:35 AM 42.8 °F 41.1 °F 24.8 °F 49% 30.19 in 10.0 mi NNE 3.5 mph - N/A   Overcast
1:15 AM 42.4 °F 40.7 °F 24.8 °F 50% 30.20 in 10.0 mi NNE 3.5 mph - N/A   Overcast
1:35 AM 41.5 °F 37.1 °F 27.1 °F 57% 30.20 in 10.0 mi North 6.9 mph - N/A Rain Light Rain
5:35 AM 34.7 °F 29.6 °F 32.0 °F 90% 30.20 in 7.0 mi North 5.8 mph - N/A   Light Drizzle
5:55 AM 34.9 °F 32.0 °F 32.0 °F 89% 30.21 in 7.0 mi North 3.5 mph - N/A   Overcast
6:15 AM 34.9 °F 32.0 °F 32.0 °F 89% 30.21 in 7.0 mi North 3.5 mph - N/A   Overcast
6:35 AM 35.1 °F 32.2 °F 32.2 °F 89% 30.22 in 7.0 mi North 3.5 mph - N/A   Overcast
7:15 AM 34.9 °F 30.8 °F 32.0 °F 89% 30.23 in 7.0 mi NNW 4.6 mph - N/A   Overcast
7:35 AM 34.9 °F 30.8 °F 32.4 °F 91% 30.23 in 7.0 mi North 4.6 mph - N/A Rain Light Rain
7:55 AM 34.9 °F 32.0 °F 32.2 °F 90% 30.23 in 7.0 mi NNE 3.5 mph - N/A Rain Light Rain
8:15 AM 34.9 °F 32.0 °F 32.2 °F 90% 30.24 in 7.0 mi NNE 3.5 mph - N/A   Overcast
8:35 AM 34.7 °F 29.6 °F 32.0 °F 90% 30.24 in 7.0 mi North 5.8 mph - N/A   Overcast
8:55 AM 34.9 °F 30.8 °F 32.2 °F 90% 30.26 in 7.0 mi North 4.6 mph - N/A   Overcast
9:15 AM 35.1 °F 30.1 °F 32.2 °F 89% 30.27 in 7.0 mi NNW 5.8 mph - N/A   Overcast
9:35 AM 35.1 °F 31.0 °F 32.4 °F 90% 30.29 in 7.0 mi North 4.6 mph - N/A   Overcast
10:35 AM 35.4 °F 29.7 °F 32.0 °F 87% 30.30 in 7.0 mi North 6.9 mph - N/A   Overcast
11:35 AM 35.8 °F 30.1 °F 32.0 °F 86% 30.30 in 7.0 mi North 6.9 mph - N/A   Overcast
11:55 AM 36.1 °F 30.6 °F 32.0 °F 85% 30.30 in 7.0 mi NNW 6.9 mph - N/A   Overcast
12:15 PM 36.5 °F 31.8 °F 31.8 °F 83% 30.29 in 7.0 mi NNW 5.8 mph - N/A   Overcast
12:35 PM 36.5 °F 31.8 °F 31.3 °F 81% 30.30 in 10.0 mi NNW 5.8 mph - N/A   Overcast
12:55 PM 36.9 °F 33.1 °F 31.5 °F 81% 30.29 in 10.0 mi North 4.6 mph - N/A   Overcast
1:15 PM 36.7 °F 32.9 °F 30.9 °F 80% 30.29 in 10.0 mi North 4.6 mph - N/A   Overcast
1:35 PM 37.0 °F 32.4 °F 30.9 °F 79% 30.29 in 10.0 mi North 5.8 mph - N/A   Overcast
1:55 PM 37.0 °F - 30.9 °F 79% 30.29 in 10.0 mi Calm Calm - N/A   Overcast
2:15 PM 37.4 °F 33.8 °F 30.9 °F 77% 30.29 in 10.0 mi NNW 4.6 mph - N/A   Overcast
2:35 PM 37.4 °F 33.8 °F 30.6 °F 76% 30.27 in 10.0 mi NNW 4.6 mph - N/A   Overcast
2:55 PM 37.6 °F 35.1 °F 30.6 °F 76% 30.27 in 10.0 mi North 3.5 mph - N/A   Overcast
3:15 PM 37.4 °F 34.9 °F 29.8 °F 74% 30.26 in 10.0 mi NNE 3.5 mph - N/A   Overcast
3:35 PM 37.6 °F - 29.7 °F 73% 30.25 in 10.0 mi Calm Calm - N/A   Overcast
3:55 PM 37.4 °F 33.8 °F 29.3 °F 73% 30.26 in 10.0 mi North 4.6 mph - N/A   Overcast
4:15 PM 37.0 °F 34.5 °F 29.3 °F 74% 30.26 in 10.0 mi North 3.5 mph - N/A   Overcast
4:35 PM 37.0 °F 33.3 °F 29.3 °F 74% 30.26 in 10.0 mi North 4.6 mph - N/A   Overcast
4:55 PM 36.7 °F - 28.8 °F 73% 30.27 in 10.0 mi Calm Calm - N/A   Overcast
5:15 PM 36.5 °F 32.7 °F 29.1 °F 75% 30.26 in 10.0 mi NNW 4.6 mph - N/A   Overcast
5:35 PM 36.1 °F 33.5 °F 29.3 °F 76% 30.27 in 10.0 mi NW 3.5 mph - N/A   Overcast
5:55 PM 36.1 °F - 29.1 °F 76% 30.27 in 10.0 mi Calm Calm - N/A   Overcast
6:15 PM 36.1 °F - 29.1 °F 76% 30.29 in 10.0 mi Calm Calm - N/A   Overcast
6:35 PM 36.1 °F - 28.9 °F 75% 30.29 in 10.0 mi Calm Calm - N/A   Overcast
6:55 PM 36.0 °F - 29.8 °F 78% 30.29 in 10.0 mi Calm Calm - N/A   Overcast
7:15 PM 35.8 °F - 28.9 °F 76% 30.30 in 10.0 mi Calm Calm - N/A   Overcast
7:35 PM 35.8 °F - 29.3 °F 77% 30.31 in 10.0 mi Calm Calm - N/A   Overcast
7:55 PM 35.8 °F - 28.8 °F 76% 30.31 in 10.0 mi Calm Calm - N/A   Overcast
8:15 PM 35.6 °F 32.8 °F 28.4 °F 75% 30.31 in 10.0 mi NW 3.5 mph - N/A   Overcast
8:35 PM 35.8 °F - 27.9 °F 73% 30.30 in 10.0 mi Calm Calm - N/A   Overcast
8:55 PM 35.6 °F 32.8 °F 27.9 °F 73% 30.31 in 10.0 mi WNW 3.5 mph - N/A   Overcast
9:15 PM 35.6 °F 32.8 °F 27.9 °F 73% 30.31 in 10.0 mi WNW 3.5 mph - N/A   Overcast
9:35 PM 35.6 °F - 27.3 °F 72% 30.31 in 10.0 mi Calm Calm - N/A   Overcast
9:55 PM 35.2 °F - 28.8 °F 77% 30.31 in 10.0 mi Calm Calm - N/A   Overcast
10:15 PM 35.1 °F 32.2 °F 28.9 °F 78% 30.30 in 10.0 mi WSW 3.5 mph - N/A   Overcast
10:35 PM 35.1 °F - 28.9 °F 78% 30.30 in 10.0 mi Calm Calm - N/A   Overcast
10:55 PM 34.9 °F - 29.1 °F 79% 30.30 in 10.0 mi Calm Calm - N/A   Overcast
11:15 PM 34.9 °F - 28.4 °F 77% 30.31 in 10.0 mi Calm Calm - N/A   Overcast
11:35 PM 34.7 °F 31.8 °F 28.9 °F 79% 30.30 in 10.0 mi West 3.5 mph - N/A   Overcast
11:55 PM 34.7 °F 31.8 °F 28.9 °F 79% 30.31 in 10.0 mi WSW 3.5 mph - N/A   Overcast